TimeCST,TemperatureF,Dew PointF,Humidity,Sea Level PressureIn,VisibilityMPH,Wind Direction,Wind SpeedMPH,Gust SpeedMPH,PrecipitationIn,Events,Conditions,WindDirDegrees,DateUTC
12:52 AM,46.0,28.0,50,30.21,10.0,SSE,8.1,-,N/A,,Overcast,160,2012-11-15 06:52:00
1:52 AM,46.0,28.9,51,30.21,10.0,South,10.4,-,N/A,,Overcast,170,2012-11-15 07:52:00
2:52 AM,43.0,30.9,62,30.21,10.0,SSE,10.4,-,N/A,,Overcast,150,2012-11-15 08:52:00
3:52 AM,42.1,30.9,65,30.22,10.0,SSE,8.1,-,N/A,,Overcast,150,2012-11-15 09:52:00
4:52 AM,42.1,30.9,65,30.22,10.0,SE,6.9,-,N/A,,Overcast,140,2012-11-15 10:52:00
5:52 AM,41.0,30.9,67,30.23,10.0,SSE,5.8,-,N/A,,Mostly Cloudy,160,2012-11-15 11:52:00
6:52 AM,41.0,30.9,67,30.25,10.0,SE,5.8,-,N/A,,Overcast,140,2012-11-15 12:52:00
7:52 AM,41.0,32.0,70,30.28,10.0,SSE,3.5,-,N/A,,Overcast,150,2012-11-15 13:52:00
8:52 AM,44.1,32.0,63,30.30,10.0,Calm,Calm,-,N/A,,Mostly Cloudy,0,2012-11-15 14:52:00
9:52 AM,48.9,32.0,52,30.31,10.0,NW,8.1,-,N/A,,Mostly Cloudy,310,2012-11-15 15:52:00
10:52 AM,53.1,32.0,45,30.32,10.0,NNW,8.1,-,N/A,,Scattered Clouds,330,2012-11-15 16:52:00
11:52 AM,55.9,30.9,39,30.32,10.0,North,9.2,-,N/A,,Scattered Clouds,350,2012-11-15 17:52:00
12:52 PM,57.0,32.0,39,30.32,10.0,North,11.5,-,N/A,,Scattered Clouds,350,2012-11-15 18:52:00
1:52 PM,59.0,33.1,38,30.30,10.0,NNW,12.7,16.1,N/A,,Scattered Clouds,340,2012-11-15 19:52:00
2:52 PM,59.0,33.1,38,30.30,10.0,NNW,15.0,19.6,N/A,,Scattered Clouds,340,2012-11-15 20:52:00
3:52 PM,57.9,32.0,37,30.33,10.0,NNW,11.5,-,N/A,,Partly Cloudy,330,2012-11-15 21:52:00
4:52 PM,51.1,33.1,50,30.34,10.0,NNW,6.9,-,N/A,,Clear,340,2012-11-15 22:52:00
5:52 PM,46.9,32.0,56,30.38,10.0,North,6.9,-,N/A,,Clear,10,2012-11-15 23:52:00
6:52 PM,42.1,33.1,70,30.40,10.0,North,6.9,-,N/A,,Clear,10,2012-11-16 00:52:00
7:52 PM,41.0,32.0,70,30.42,10.0,North,6.9,-,N/A,,Clear,10,2012-11-16 01:52:00
8:52 PM,39.2,32.0,75,30.42,10.0,North,9.2,-,N/A,,Clear,350,2012-11-16 02:52:00
9:52 PM,37.0,30.9,79,30.45,10.0,North,5.8,-,N/A,,Clear,10,2012-11-16 03:52:00
10:52 PM,35.1,30.0,82,30.46,10.0,North,8.1,-,N/A,,Clear,360,2012-11-16 04:52:00
11:52 PM,34.0,28.9,82,30.47,10.0,North,8.1,-,N/A,,Clear,350,2012-11-16 05:52:00